Regional Weather Roundup
Issued by NWS

Home | Current Version | Previous Version | Text Only | Print | Product List | Glossary On
Versions: 1 2 3 4 5 6 7 8 9 10 11 12 13 14 15 16 17 18 19 20 21 22 23 24 25 26 27 28 29 30 31 32 33 34 35 36 37 38 39 40 41 42 43 44 45 46 47 48 49 50
000
ASUS43 KTOP 290159
RWRKS

WEATHER ROUNDUP FOR KANSAS
NATIONAL WEATHER SERVICE GOODLAND KS
800 PM CST SUN DEC 28 2014

NOTE:  "FAIR" INDICATES FEW OR NO CLOUDS BELOW 12,000 FEET WITH NO
SIGNIFICANT WEATHER AND/OR OBSTRUCTIONS TO VISIBILITY.

KSZ001>006-013>018-027>032-041>047-290300-
NORTHWEST KANSAS

CITY           SKY/WX    TMP DP  RH WIND       PRES   REMARKS
GOODLAND       CLEAR     15  12  88 CALM      29.98R
HAYS           MOCLDY    30  18  59 SE8       30.04S
HILL CITY      PTCLDY    28  23  81 NE6       30.05R
RUSSELL        MOCLDY    31  22  69 SE9       30.05R
$$

KSZ061>065-074>080-084>089-290300-
SOUTHWEST KANSAS

CITY           SKY/WX    TMP DP  RH WIND       PRES   REMARKS
DODGE CITY     CLEAR     25  17  72 SE8       29.99R
ELKHART          N/A     21  13  71 SE10        N/A  WCI  10
GARDEN CITY    CLEAR     23  15  71 E6        29.96R
GREAT BEND     PTCLDY    28  18  64 SE8       30.07S
LIBERAL        CLEAR     27  14  59 CALM      29.97R
$$

KSZ066>073-081>083-090>101-290300-
SOUTHEAST KANSAS

CITY           SKY/WX    TMP DP  RH WIND       PRES   REMARKS
CHANUTE        CLEAR     30  19  63 E6        30.16S
COFFEYVILLE    CLEAR     30  22  72 E6        30.17S
HUTCHINSON     CLEAR     28  19  69 E5        30.10R
MEDICINE LODGE   N/A     30  19  63 SE7       30.06R
NEWTON         CLEAR     28  16  59 S7        30.12R
PARSONS        CLEAR     27  23  85 CALM      30.17S
WICHITA INTL   CLEAR     31  19  61 SE5       30.10S
WICHITA JABRA  CLEAR     30  18  60 S3        30.11R
WINFIELD       FAIR      32  17  54 SE7       30.12S
$$

KSZ007>012-019>026-033>040-048>060-102>105-290300-
NORTHEAST KANSAS

CITY           SKY/WX    TMP DP  RH WIND       PRES   REMARKS
CONCORDIA      CLOUDY    33  22  63 SE3       30.11R
EMPORIA        PTCLDY    27  18  69 SE6       30.13R
LAWRENCE       MOCLDY    26  21  81 CALM      30.17S
MANHATTAN      CLOUDY    32  22  66 CALM      30.13R
OLATHE IND     PTCLDY    29  20  69 CALM      30.17R
OLATHE EXE     PTCLDY    30  19  63 SE3       30.16R
SALINA         MOCLDY    32  22  66 S6        30.12R
TOPEKA BILLARD MOCLDY    31  21  66 SE5       30.17R
TOPEKA FORBES  MOCLDY    30  20  66 E3        30.15R
$$



USA.gov is the U.S. government's official web portal to all federal, state and local government web resources and services.